| time (UTC) | temp F | wind direction | speed knots | gust knots | rain 1hr in | rain 24hr in | rain mn in | humidity % | barometer mb |
| 20260507141619 | 35 | 248 | 0.9 | 7.8 | 0.02 | 0.09 | 0.09 | 88 | 1014.9 |
| 20260507140110 | 37 | 234 | 2.6 | 3.5 | 0.00 | 0.06 | 0.06 | 89 | 1014.7 |
| 20260507134547 | 36 | 195 | 2.6 | 5.2 | 0.00 | 0.06 | 0.06 | 90 | 1014.5 |
| 20260507133042 | 37 | 171 | 3.5 | 6.1 | 0.02 | 0.06 | 0.06 | 89 | 1014.5 |
| 20260507131606 | 36 | 252 | 1.7 | 6.1 | 0.03 | 0.06 | 0.06 | 90 | 1014.3 |
| 20260507130034 | 35 | 229 | 3.5 | 7.0 | 0.05 | 0.06 | 0.06 | 90 | 1014.3 |
| 20260507124531 | 34 | 242 | 5.2 | 8.7 | 0.05 | 0.06 | 0.06 | 89 | 1014.2 |
| 20260507123028 | 34 | 257 | 7.0 | 10.4 | 0.03 | 0.05 | 0.05 | 87 | 1014.1 |
| 20260507121518 | 34 | 283 | 9.6 | 13.0 | 0.02 | 0.03 | 0.03 | 86 | 1014.1 |
| 20260507120026 | 38 | 266 | 8.7 | 12.2 | 0.00 | 0.02 | 0.02 | 77 | 1013.8 |
| 20260507114511 | 39 | 222 | 9.6 | 14.8 | 0.00 | 0.02 | 0.02 | 75 | 1013.4 |
| 20260507113012 | 39 | 215 | 10.4 | 16.5 | 0.00 | 0.02 | 0.02 | 76 | 1013.2 |
| 20260507111507 | 39 | 180 | 7.8 | 12.2 | 0.00 | 0.02 | 0.02 | 78 | 1013.0 |
| 20260507110006 | 38 | 200 | 7.8 | 14.8 | 0.00 | 0.02 | 0.02 | 78 | 1013.0 |
| 20260507104505 | 39 | 181 | 9.6 | 16.5 | 0.00 | 0.02 | 0.02 | 78 | 1012.9 |
| 20260507103002 | 39 | 194 | 9.6 | 15.6 | 0.00 | 0.02 | 0.02 | 76 | 1012.8 |
| 20260507101600 | 40 | 211 | 7.8 | 12.2 | 0.00 | 0.02 | 0.02 | 76 | 1012.7 |
| 20260507094611 | 37 | 174 | 4.3 | 13.0 | 0.00 | 0.02 | 0.02 | 80 | 1012.6 |
| 20260507093054 | 37 | 184 | 7.8 | 11.3 | 0.00 | 0.02 | 0.02 | 77 | 1012.5 |
| 20260507091552 | 38 | 219 | 5.2 | 13.9 | 0.00 | 0.02 | 0.02 | 76 | 1012.3 |
| 20260507090049 | 38 | 182 | 6.1 | 12.2 | 0.00 | 0.02 | 0.02 | 78 | 1012.3 |
| 20260507084556 | 37 | 213 | 7.8 | 13.9 | 0.00 | 0.02 | 0.02 | 77 | 1012.3 |
| 20260507083046 | 37 | 196 | 8.7 | 11.3 | 0.01 | 0.02 | 0.02 | 82 | 1012.1 |
| 20260507081545 | 36 | 214 | 5.2 | 13.0 | 0.01 | 0.02 | 0.02 | 83 | 1012.1 |
| 20260507080043 | 38 | 207 | 7.8 | 15.6 | 0.01 | 0.02 | 0.02 | 78 | 1012.0 |
| 20260507074545 | 36 | 221 | 6.1 | 10.4 | 0.01 | 0.02 | 0.02 | 77 | 1011.8 |
| 20260507073041 | 37 | 229 | 7.8 | 12.2 | 0.00 | 0.01 | 0.01 | 75 | 1011.7 |
| 20260507071543 | 38 | 175 | 7.8 | 10.4 | 0.00 | 0.01 | 0.01 | 77 | 1011.6 |
| 20260507070044 | 38 | 219 | 6.1 | 12.2 | 0.00 | 0.01 | 0.01 | 77 | 1011.5 |
| 20260507064543 | 0 | 0.0 | 0.0 | 0.00 | 0.02 | 0.01 | 1011.3 | ||
| 20260507063030 | 36 | 194 | 6.1 | 9.6 | 0.00 | 0.02 | 0.01 | 81 | 1011.2 |
| 20260507061535 | 36 | 185 | 5.2 | 13.0 | 0.00 | 0.02 | 0.01 | 80 | 1011.0 |
| 20260507060037 | 36 | 181 | 6.1 | 9.6 | 0.00 | 0.02 | 0.01 | 81 | 1011.0 |
| 20260507054534 | 35 | 194 | 7.0 | 9.6 | 0.00 | 0.03 | 0.01 | 83 | 1010.9 |
| 20260507053018 | 34 | 198 | 2.6 | 5.2 | 0.00 | 0.03 | 0.01 | 87 | 1010.8 |
| 20260507051514 | 0 | 0.0 | 0.0 | 0.00 | 0.03 | 0.01 | 1010.8 | ||
| 20260507050031 | 0 | 0.0 | 0.0 | 0.00 | 0.03 | 0.01 | 1010.7 | ||
| 20260507044511 | 34 | 211 | 5.2 | 8.7 | 0.01 | 0.03 | 0.01 | 86 | 1010.8 |
| 20260507043006 | 34 | 183 | 1.7 | 3.5 | 0.01 | 0.03 | 0.01 | 85 | 1010.7 |
| 20260507041507 | 33 | 197 | 2.6 | 5.2 | 0.01 | 0.03 | 0.01 | 87 | 1010.6 |
| 20260507040004 | 34 | 209 | 0.9 | 2.6 | 0.01 | 0.03 | 0.01 | 87 | 1010.4 |
| 20260507034501 | 33 | 229 | 3.5 | 7.0 | 0.00 | 0.03 | 0.00 | 87 | 1010.2 |
| 20260507033103 | 33 | 229 | 5.2 | 7.8 | 0.00 | 0.03 | 0.00 | 88 | 1010.2 |
| 20260507031558 | 33 | 239 | 6.1 | 9.6 | 0.00 | 0.03 | 0.00 | 88 | 1010.1 |
| 20260507030056 | 0 | 0.0 | 0.0 | 0.00 | 0.03 | 0.00 | 1010.1 | ||
| 20260507024551 | 0 | 0.0 | 0.0 | 0.00 | 0.03 | 0.00 | 1010.1 | ||
| 20260507023046 | 0 | 0.0 | 0.0 | 0.00 | 0.03 | 0.00 | 1009.9 | ||
| 20260507021555 | 32 | 238 | 4.3 | 7.8 | 0.00 | 0.03 | 0.00 | 92 | 1009.9 |
| 20260507020045 | 32 | 229 | 4.3 | 6.1 | 0.00 | 0.03 | 0.00 | 92 | 1009.9 |
| 20260507014543 | 32 | 234 | 3.5 | 7.8 | 0.00 | 0.03 | 0.00 | 92 | 1009.8 |
| 20260507013041 | 32 | 216 | 2.6 | 7.0 | 0.00 | 0.03 | 0.00 | 92 | 1009.8 |
| 20260507011540 | 32 | 232 | 1.7 | 3.5 | 0.00 | 0.03 | 0.00 | 92 | 1009.8 |
| 20260507010044 | 32 | 218 | 2.6 | 4.3 | 0.00 | 0.03 | 0.00 | 92 | 1009.8 |
| 20260507004536 | 32 | 232 | 1.7 | 5.2 | 0.00 | 0.03 | 0.00 | 92 | 1009.6 |
| 20260507003033 | 32 | 240 | 2.6 | 4.3 | 0.00 | 0.03 | 0.00 | 92 | 1009.6 |
| 20260507001534 | 0 | 0.0 | 0.0 | 0.00 | 0.03 | 0.00 | 1009.4 | ||
| 20260507000032 | 0 | 0.0 | 0.0 | 0.00 | 0.03 | 0.00 | 1009.4 | ||
| 20260506234521 | 0 | 0.0 | 0.0 | 0.00 | 0.03 | 0.00 | 1009.4 | ||
| 20260506233018 | 0 | 0.0 | 0.0 | 0.00 | 0.03 | 0.00 | 1009.3 | ||
| 20260506231516 | 0 | 0.0 | 0.0 | 0.00 | 0.03 | 0.00 | 1009.3 | ||
| 20260506230012 | 0 | 0.0 | 0.0 | 0.00 | 0.03 | 0.00 | 1009.3 | ||
| 20260506224505 | 0 | 0.0 | 0.0 | 0.00 | 0.03 | 0.00 | 1009.2 | ||
| 20260506223102 | 0 | 0.0 | 0.0 | 0.00 | 0.03 | 0.00 | 1009.2 | ||
| 20260506221558 | 0 | 0.0 | 0.0 | 0.00 | 0.03 | 0.00 | 1009.1 | ||
| 20260506220052 | 0 | 0.0 | 0.0 | 0.00 | 0.03 | 0.00 | 1009.1 | ||
| 20260506214547 | 0 | 0.0 | 0.0 | 0.00 | 0.03 | 0.03 | 1008.9 | ||
| 20260506213042 | 0 | 0.0 | 0.0 | 0.00 | 0.03 | 0.03 | 1008.9 | ||
| 20260506211538 | 0 | 0.0 | 0.0 | 0.00 | 0.03 | 0.03 | 1008.9 | ||
| 20260506210037 | 0 | 0.0 | 0.0 | 0.00 | 0.03 | 0.03 | 1008.9 | ||
| 20260506204545 | 0 | 0.0 | 0.0 | 0.00 | 0.03 | 0.03 | 1008.9 | ||
| 20260506203029 | 0 | 0.0 | 0.0 | 0.00 | 0.03 | 0.03 | 1008.8 | ||
| 20260506201524 | 0 | 0.0 | 0.0 | 0.00 | 0.03 | 0.03 | 1008.8 | ||
| 20260506200016 | 0 | 0.0 | 0.0 | 0.00 | 0.03 | 0.03 | 1008.8 | ||
| 20260506194513 | 0 | 0.0 | 0.0 | 0.00 | 0.03 | 0.03 | 1008.8 | ||
| 20260506193014 | 35 | 284 | 0.0 | 2.6 | 0.00 | 0.03 | 0.03 | 77 | 1008.7 |
| 20260506191511 | 35 | 294 | 0.0 | 2.6 | 0.00 | 0.03 | 0.03 | 77 | 1008.6 |
| 20260506190008 | 35 | 294 | 1.7 | 3.5 | 0.00 | 0.03 | 0.03 | 77 | 1008.5 |
| 20260506184506 | 35 | 284 | 2.6 | 3.5 | 0.00 | 0.03 | 0.03 | 77 | 1008.5 |
| 20260506183006 | 35 | 247 | 1.7 | 3.5 | 0.00 | 0.03 | 0.03 | 77 | 1008.5 |
| 20260506181506 | 36 | 276 | 2.6 | 4.3 | 0.00 | 0.03 | 0.03 | 76 | 1008.3 |
| 20260506180008 | 36 | 272 | 3.5 | 6.1 | 0.00 | 0.03 | 0.03 | 74 | 1008.3 |
| 20260506174503 | 36 | 261 | 2.6 | 4.3 | 0.00 | 0.03 | 0.03 | 74 | 1008.3 |
| 20260506173003 | 36 | 260 | 3.5 | 7.8 | 0.00 | 0.03 | 0.03 | 72 | 1008.3 |
| 20260506171505 | 36 | 256 | 4.3 | 7.8 | 0.00 | 0.03 | 0.03 | 71 | 1008.3 |
| 20260506170001 | 37 | 241 | 5.2 | 8.7 | 0.00 | 0.03 | 0.03 | 72 | 1008.3 |
| 20260506164600 | 37 | 257 | 3.5 | 7.0 | 0.00 | 0.03 | 0.03 | 71 | 1008.2 |
| 20260506163059 | 37 | 229 | 4.3 | 9.6 | 0.00 | 0.03 | 0.03 | 68 | 1008.2 |
| 20260506161606 | 37 | 252 | 5.2 | 7.8 | 0.00 | 0.03 | 0.03 | 67 | 1008.2 |
| 20260506160058 | 37 | 138 | 1.7 | 5.2 | 0.00 | 0.03 | 0.03 | 76 | 1008.0 |
| 20260506154557 | 37 | 111 | 1.7 | 5.2 | 0.00 | 0.03 | 0.03 | 76 | 1008.0 |
| 20260506153055 | 37 | 128 | 0.9 | 5.2 | 0.00 | 0.03 | 0.03 | 76 | 1008.0 |
| 20260506151606 | 37 | 134 | 1.7 | 6.1 | 0.00 | 0.03 | 0.03 | 75 | 1007.9 |
| 20260506150054 | 37 | 141 | 1.7 | 8.7 | 0.00 | 0.03 | 0.03 | 73 | 1007.9 |
| 20260506144552 | 38 | 192 | 3.5 | 7.8 | 0.00 | 0.03 | 0.03 | 69 | 1007.7 |
| 20260506143055 | 38 | 37 | 2.6 | 7.8 | 0.00 | 0.03 | 0.03 | 63 | 1007.6 |